Wetterdaten: Mittwoch, 04.03.2015
Datum Zeit Temp. A. Feuchte A. Luftdruck Regen Wind Richtung Richtung Sonnenschein ET UV Solar Taupunkt Windchill Windben Empfang
04.03.2015 00:00 -0,7 C 68 % 1021,1 hPa 0,0 l/m 0,0 km/h (0 Bft) S 183 0 min 0,000 mm 0,0 UV-I 0 W/m -5,9 C -0,7 C 0,0 km/h (0 Bft) 0,00 %
04.03.2015 00:15 -1,0 C 70 % 1021,1 hPa 0,0 l/m 0,0 km/h (0 Bft) S-SW 199 0 min 0,000 mm 0,0 UV-I 0 W/m -5,8 C -1,0 C 0,0 km/h (0 Bft) 0,00 %
04.03.2015 00:30 -0,6 C 65 % 1020,7 hPa 0,0 l/m 0,0 km/h (0 Bft) S 176 0 min 0,000 mm 0,0 UV-I 0 W/m -6,3 C -0,6 C 0,0 km/h (0 Bft) 0,00 %
04.03.2015 00:45 -0,2 C 64 % 1020,5 hPa 0,0 l/m 0,0 km/h (0 Bft) SW 214 0 min 0,000 mm 0,0 UV-I 0 W/m -6,2 C -0,2 C 0,0 km/h (0 Bft) 0,00 %
04.03.2015 01:00 -0,2 C 67 % 1020,9 hPa 0,0 l/m 0,0 km/h (0 Bft) SW 216 0 min 0,000 mm 0,0 UV-I 0 W/m -5,6 C -0,2 C 0,0 km/h (0 Bft) 0,00 %
04.03.2015 01:15 -0,6 C 71 % 1020,6 hPa 0,0 l/m 0,0 km/h (0 Bft) SW 216 0 min 0,000 mm 0,0 UV-I 0 W/m -5,2 C -0,6 C 0,0 km/h (0 Bft) 0,00 %
04.03.2015 01:30 -0,6 C 70 % 1020,7 hPa 0,0 l/m 0,7 km/h (0 Bft) W-SW 255 0 min 0,000 mm 0,0 UV-I 0 W/m -5,4 C -0,6 C 4,0 km/h (1 Bft) 0,00 %
04.03.2015 01:45 -0,7 C 70 % 1020,8 hPa 0,0 l/m 0,0 km/h (0 Bft) SW 220 0 min 0,000 mm 0,0 UV-I 0 W/m -5,5 C -0,7 C 0,0 km/h (0 Bft) 0,00 %
04.03.2015 02:00 -0,7 C 70 % 1020,5 hPa 0,0 l/m 0,0 km/h (0 Bft) S-SW 205 0 min 0,000 mm 0,0 UV-I 0 W/m -5,5 C -0,7 C 0,0 km/h (0 Bft) 0,00 %
04.03.2015 02:15 -0,6 C 67 % 1020,4 hPa 0,0 l/m 0,0 km/h (0 Bft) S-SW 200 0 min 0,000 mm 0,0 UV-I 0 W/m -6,0 C -0,6 C 0,0 km/h (0 Bft) 0,00 %
04.03.2015 02:30 -0,5 C 64 % 1020,2 hPa 0,0 l/m 0,0 km/h (0 Bft) S-SW 197 0 min 0,000 mm 0,0 UV-I 0 W/m -6,5 C -0,5 C 0,0 km/h (0 Bft) 0,00 %
04.03.2015 02:45 -0,3 C 63 % 1020,3 hPa 0,0 l/m 0,0 km/h (0 Bft) S-SW 194 0 min 0,000 mm 0,0 UV-I 0 W/m -6,5 C -0,3 C 0,0 km/h (0 Bft) 0,00 %
04.03.2015 03:00 -0,3 C 64 % 1020,1 hPa 0,0 l/m 0,0 km/h (0 Bft) S-SW 195 0 min 0,000 mm 0,0 UV-I 0 W/m -6,3 C -0,3 C 0,0 km/h (0 Bft) 0,00 %
04.03.2015 03:15 -0,2 C 64 % 1019,9 hPa 0,0 l/m 0,0 km/h (0 Bft) S 175 0 min 0,000 mm 0,0 UV-I 0 W/m -6,2 C -0,2 C 0,0 km/h (0 Bft) 0,00 %
04.03.2015 03:30 0,0 C 64 % 1020,1 hPa 0,0 l/m 0,0 km/h (0 Bft) S 186 0 min 0,000 mm 0,0 UV-I 0 W/m -6,0 C 0,0 C 0,0 km/h (0 Bft) 0,00 %
04.03.2015 03:45 0,1 C 64 % 1020,0 hPa 0,0 l/m 0,0 km/h (0 Bft) S 191 0 min 0,000 mm 0,0 UV-I 0 W/m -5,9 C 0,1 C 0,0 km/h (0 Bft) 0,00 %
04.03.2015 04:00 0,5 C 62 % 1020,0 hPa 0,0 l/m 0,0 km/h (0 Bft) SW 216 0 min 0,000 mm 0,0 UV-I 0 W/m -5,9 C 0,5 C 0,0 km/h (0 Bft) 0,00 %
04.03.2015 04:15 1,3 C 59 % 1020,0 hPa 0,0 l/m 1,8 km/h (1 Bft) W-SW 252 0 min 0,000 mm 0,0 UV-I 0 W/m -5,8 C 1,3 C 4,0 km/h (1 Bft) 0,00 %
04.03.2015 04:30 2,4 C 59 % 1020,3 hPa 0,0 l/m 3,2 km/h (1 Bft) O-SO 106 0 min 0,000 mm 0,0 UV-I 0 W/m -4,8 C 2,4 C 7,9 km/h (2 Bft) 0,00 %
04.03.2015 04:45 3,2 C 59 % 1020,4 hPa 0,0 l/m 1,8 km/h (1 Bft) W-SW 253 0 min 0,000 mm 0,0 UV-I 0 W/m -4,0 C 3,2 C 4,0 km/h (1 Bft) 0,00 %
04.03.2015 05:00 3,4 C 61 % 1020,6 hPa 0,0 l/m 1,4 km/h (1 Bft) W-SW 250 0 min 0,000 mm 0,0 UV-I 0 W/m -3,4 C 3,4 C 4,0 km/h (1 Bft) 0,00 %
04.03.2015 05:15 3,0 C 63 % 1020,5 hPa 0,0 l/m 4,0 km/h (1 Bft) W-SW 250 0 min 0,000 mm 0,0 UV-I 0 W/m -3,3 C 3,0 C 7,9 km/h (2 Bft) 0,00 %
04.03.2015 05:30 2,8 C 67 % 1021,1 hPa 0,0 l/m 1,4 km/h (1 Bft) W-SW 256 0 min 0,000 mm 0,0 UV-I 0 W/m -2,7 C 2,8 C 4,0 km/h (1 Bft) 0,00 %
04.03.2015 05:45 2,9 C 73 % 1021,3 hPa 0,0 l/m 5,8 km/h (2 Bft) SW 223 0 min 0,000 mm 0,0 UV-I 0 W/m -1,5 C 2,9 C 7,9 km/h (2 Bft) 0,00 %
04.03.2015 06:00 3,0 C 79 % 1021,6 hPa 0,3 l/m 5,4 km/h (1 Bft) W-SW 256 0 min 0,000 mm 0,0 UV-I 0 W/m -0,3 C 3,0 C 7,9 km/h (2 Bft) 0,00 %
04.03.2015 06:15 2,0 C 78 % 1022,4 hPa 0,3 l/m 4,7 km/h (1 Bft) SW 224 0 min 0,000 mm 0,0 UV-I 0 W/m -1,4 C 2,0 C 11,9 km/h (2 Bft) 0,00 %
04.03.2015 06:30 1,6 C 78 % 1022,6 hPa 0,0 l/m 4,0 km/h (1 Bft) NW 304 0 min 0,000 mm 0,0 UV-I 0 W/m -1,8 C 1,6 C 7,9 km/h (2 Bft) 0,00 %
04.03.2015 06:45 1,5 C 80 % 1022,9 hPa 0,0 l/m 3,2 km/h (1 Bft) W-SW 250 0 min 0,000 mm 0,0 UV-I 0 W/m -1,6 C 1,5 C 7,9 km/h (2 Bft) 0,00 %
04.03.2015 07:00 1,4 C 80 % 1023,5 hPa 0,0 l/m 0,0 km/h (0 Bft) NO 37 0 min 0,000 mm 0,0 UV-I 0 W/m -1,7 C 1,4 C 0,0 km/h (0 Bft) 0,00 %
04.03.2015 07:15 1,5 C 79 % 1023,6 hPa 0,0 l/m 0,4 km/h (0 Bft) SW 214 0 min 0,000 mm 0,0 UV-I 1 W/m -1,7 C 1,5 C 4,0 km/h (1 Bft) 0,00 %
04.03.2015 07:30 1,5 C 79 % 1024,1 hPa 0,0 l/m 3,2 km/h (1 Bft) W-NW 298 0 min 0,000 mm 0,0 UV-I 4 W/m -1,7 C 1,5 C 7,9 km/h (2 Bft) 0,00 %
04.03.2015 07:45 1,5 C 79 % 1024,3 hPa 0,0 l/m 0,4 km/h (0 Bft) W-SW 251 0 min 0,000 mm 1,0 UV-I 21 W/m -1,7 C 1,5 C 4,0 km/h (1 Bft) 0,00 %
04.03.2015 08:00 1,6 C 79 % 1024,8 hPa 0,0 l/m 0,7 km/h (0 Bft) O-SO 114 0 min 0,000 mm 0,0 UV-I 38 W/m -1,6 C 1,6 C 4,0 km/h (1 Bft) 0,00 %
04.03.2015 08:15 1,6 C 79 % 1025,0 hPa 0,0 l/m 0,7 km/h (0 Bft) W-SW 253 0 min 0,000 mm 1,0 UV-I 42 W/m -1,6 C 1,6 C 4,0 km/h (1 Bft) 0,00 %
04.03.2015 08:30 1,8 C 79 % 1025,0 hPa 0,0 l/m 2,2 km/h (1 Bft) W-SW 251 0 min 0,000 mm 1,0 UV-I 29 W/m -1,4 C 1,8 C 4,0 km/h (1 Bft) 0,00 %
04.03.2015 08:45 2,1 C 78 % 1025,2 hPa 0,3 l/m 2,2 km/h (1 Bft) S-SW 199 0 min 0,000 mm 1,0 UV-I 67 W/m -1,3 C 2,1 C 4,0 km/h (1 Bft) 0,00 %
04.03.2015 09:00 2,3 C 78 % 1025,4 hPa 0,0 l/m 2,9 km/h (1 Bft) S-SW 199 0 min 0,000 mm 1,0 UV-I 114 W/m -1,1 C 2,3 C 7,9 km/h (2 Bft) 0,00 %
04.03.2015 09:15 2,7 C 81 % 1025,4 hPa 0,0 l/m 4,3 km/h (1 Bft) W-SW 255 0 min 0,000 mm 2,0 UV-I 127 W/m -0,2 C 2,7 C 7,9 km/h (2 Bft) 0,00 %
04.03.2015 09:30 3,1 C 78 % 1025,3 hPa 0,0 l/m 6,5 km/h (2 Bft) N-NW 330 0 min 0,000 mm 2,0 UV-I 141 W/m -0,4 C 3,0 C 11,9 km/h (2 Bft) 0,00 %
04.03.2015 09:45 3,0 C 79 % 1025,6 hPa 0,0 l/m 0,4 km/h (0 Bft) SW 220 0 min 0,000 mm 1,0 UV-I 182 W/m -0,3 C 3,0 C 4,0 km/h (1 Bft) 0,00 %
04.03.2015 10:00 3,1 C 78 % 1024,3 hPa 0,0 l/m 5,8 km/h (2 Bft) N 351 0 min 0,000 mm 1,0 UV-I 154 W/m -0,4 C 3,1 C 7,9 km/h (2 Bft) 0,00 %
04.03.2015 10:15 3,2 C 76 % 1024,3 hPa 0,0 l/m 0,4 km/h (0 Bft) N-NO 13 0 min 0,000 mm 2,0 UV-I 168 W/m -0,6 C 3,2 C 4,0 km/h (1 Bft) 0,00 %
04.03.2015 10:30 3,7 C 74 % 1024,3 hPa 0,0 l/m 2,2 km/h (1 Bft) W-NW 285 0 min 0,000 mm 2,0 UV-I 147 W/m -0,5 C 3,7 C 7,9 km/h (2 Bft) 0,00 %
04.03.2015 10:45 4,0 C 72 % 1024,2 hPa 0,0 l/m 0,0 km/h (0 Bft) N-NW 336 0 min 0,000 mm 2,0 UV-I 172 W/m -0,6 C 4,0 C 0,0 km/h (0 Bft) 0,00 %
04.03.2015 11:00 4,5 C 70 % 1024,3 hPa 0,0 l/m 2,9 km/h (1 Bft) NW 314 0 min 0,000 mm 4,0 UV-I 186 W/m -0,5 C 4,5 C 4,0 km/h (1 Bft) 0,00 %
04.03.2015 11:15 5,2 C 68 % 1024,0 hPa 0,0 l/m 7,2 km/h (2 Bft) W-SW 256 0 min 0,000 mm 4,0 UV-I 193 W/m -0,2 C 4,5 C 11,9 km/h (2 Bft) 0,00 %
04.03.2015 11:30 4,8 C 69 % 1024,1 hPa 0,0 l/m 0,0 km/h (0 Bft) S 186 0 min 0,000 mm 3,0 UV-I 208 W/m -0,4 C 4,8 C 0,0 km/h (0 Bft) 0,00 %
04.03.2015 11:45 5,7 C 66 % 1023,8 hPa 0,0 l/m 5,4 km/h (1 Bft) SW 215 15 min 0,000 mm 3,0 UV-I 454 W/m -0,1 C 5,7 C 7,9 km/h (2 Bft) 0,00 %
04.03.2015 12:00 5,7 C 63 % 1023,7 hPa 0,0 l/m 7,9 km/h (2 Bft) W-NW 285 0 min 0,000 mm 3,0 UV-I 222 W/m -0,8 C 4,4 C 19,8 km/h (3 Bft) 0,00 %
04.03.2015 12:15 6,5 C 61 % 1023,5 hPa 0,0 l/m 4,3 km/h (1 Bft) SO 124 0 min 0,000 mm 3,0 UV-I 219 W/m -0,5 C 6,5 C 7,9 km/h (2 Bft) 0,00 %
04.03.2015 12:30 6,4 C 60 % 1023,5 hPa 0,0 l/m 4,0 km/h (1 Bft) S 184 0 min 0,000 mm 2,0 UV-I 236 W/m -0,8 C 6,4 C 7,9 km/h (2 Bft) 0,00 %
04.03.2015 12:45 6,8 C 57 % 1023,5 hPa 0,0 l/m 9,4 km/h (2 Bft) W-SW 252 0 min 0,000 mm 2,0 UV-I 191 W/m -1,1 C 4,5 C 11,9 km/h (2 Bft) 0,00 %
04.03.2015 13:00 6,9 C 51 % 1023,0 hPa 0,0 l/m 5,8 km/h (2 Bft) S-SW 194 0 min 0,000 mm 2,0 UV-I 296 W/m -2,5 C 6,9 C 7,9 km/h (2 Bft) 0,00 %
04.03.2015 13:15 6,3 C 57 % 1023,3 hPa 0,0 l/m 4,3 km/h (1 Bft) N-NW 331 0 min 0,000 mm 1,0 UV-I 273 W/m -1,6 C 6,3 C 7,9 km/h (2 Bft) 0,00 %
04.03.2015 13:30 4,0 C 74 % 1024,9 hPa 0,0 l/m 0,0 km/h (0 Bft) SO 139 0 min 0,000 mm 1,0 UV-I 65 W/m -0,2 C 4,0 C 0,0 km/h (0 Bft) 0,00 %
04.03.2015 13:45 2,8 C 74 % 1025,3 hPa 0,3 l/m 0,0 km/h (0 Bft) W-SW 251 0 min 0,000 mm 1,0 UV-I 90 W/m -1,4 C 2,8 C 0,0 km/h (0 Bft) 0,00 %
04.03.2015 14:00 2,1 C 78 % 1025,0 hPa 0,0 l/m 3,2 km/h (1 Bft) W-SW 256 0 min 0,000 mm 1,0 UV-I 42 W/m -1,3 C 2,1 C 4,0 km/h (1 Bft) 0,00 %
04.03.2015 14:15 2,5 C 79 % 1024,8 hPa 0,3 l/m 1,4 km/h (1 Bft) O-SO 114 0 min 0,000 mm 1,0 UV-I 92 W/m -0,8 C 2,5 C 4,0 km/h (1 Bft) 0,00 %
04.03.2015 14:30 2,8 C 79 % 1024,2 hPa 0,0 l/m 0,4 km/h (0 Bft) W-SW 251 0 min 0,000 mm 2,0 UV-I 122 W/m -0,5 C 2,8 C 4,0 km/h (1 Bft) 0,00 %
04.03.2015 14:45 3,7 C 73 % 1024,3 hPa 0,0 l/m 1,4 km/h (1 Bft) W-SW 247 0 min 0,000 mm 1,0 UV-I 145 W/m -0,7 C 3,7 C 4,0 km/h (1 Bft) 0,00 %
04.03.2015 15:00 4,2 C 68 % 1024,1 hPa 0,0 l/m 10,8 km/h (2 Bft) W-SW 254 0 min 0,000 mm 1,0 UV-I 157 W/m -1,2 C 0,6 C 15,8 km/h (3 Bft) 0,00 %
04.03.2015 15:15 4,0 C 67 % 1024,5 hPa 0,0 l/m 5,4 km/h (1 Bft) W-SW 255 0 min 0,000 mm 1,0 UV-I 94 W/m -1,6 C 4,0 C 7,9 km/h (2 Bft) 0,00 %
04.03.2015 15:30 4,0 C 65 % 1024,3 hPa 0,0 l/m 0,0 km/h (0 Bft) S-SW 197 0 min 0,000 mm 1,0 UV-I 113 W/m -2,0 C 4,0 C 0,0 km/h (0 Bft) 0,00 %
04.03.2015 15:45 4,3 C 65 % 1024,2 hPa 0,0 l/m 0,4 km/h (0 Bft) S-SW 196 0 min 0,000 mm 1,0 UV-I 123 W/m -1,7 C 4,3 C 4,0 km/h (1 Bft) 0,00 %
04.03.2015 16:00 4,3 C 65 % 1024,1 hPa 0,0 l/m 0,4 km/h (0 Bft) SW 219 0 min 0,000 mm 1,0 UV-I 130 W/m -1,7 C 4,3 C 4,0 km/h (1 Bft) 0,00 %
04.03.2015 16:15 4,7 C 62 % 1023,7 hPa 0,0 l/m 0,4 km/h (0 Bft) SW 224 15 min 0,000 mm 1,0 UV-I 175 W/m -1,9 C 4,7 C 4,0 km/h (1 Bft) 0,00 %
04.03.2015 16:30 5,0 C 60 % 1024,1 hPa 0,0 l/m 3,2 km/h (1 Bft) W-SW 256 15 min 0,000 mm 1,0 UV-I 261 W/m -2,1 C 5,0 C 7,9 km/h (2 Bft) 0,00 %
04.03.2015 16:45 4,4 C 62 % 1024,6 hPa 0,0 l/m 0,0 km/h (0 Bft) SW 229 0 min 0,000 mm 1,0 UV-I 87 W/m -2,2 C 4,4 C 0,0 km/h (0 Bft) 0,00 %
04.03.2015 17:00 3,9 C 63 % 1024,8 hPa 0,0 l/m 0,7 km/h (0 Bft) SW 231 0 min 0,000 mm 0,0 UV-I 48 W/m -2,5 C 3,9 C 4,0 km/h (1 Bft) 0,00 %
04.03.2015 17:15 3,6 C 65 % 1025,2 hPa 0,0 l/m 0,0 km/h (0 Bft) SW 217 0 min 0,000 mm 0,0 UV-I 29 W/m -2,4 C 3,6 C 0,0 km/h (0 Bft) 0,00 %
04.03.2015 17:30 3,3 C 67 % 1025,6 hPa 0,0 l/m 0,0 km/h (0 Bft) SW 224 0 min 0,000 mm 0,0 UV-I 4 W/m -2,2 C 3,3 C 0,0 km/h (0 Bft) 0,00 %
04.03.2015 17:45 3,3 C 66 % 1026,0 hPa 0,0 l/m 0,0 km/h (0 Bft) SW 214 0 min 0,000 mm 0,0 UV-I 0 W/m -2,4 C 3,3 C 0,0 km/h (0 Bft) 0,00 %
04.03.2015 18:00 3,0 C 69 % 1026,2 hPa 0,0 l/m 0,0 km/h (0 Bft) S-SW 192 0 min 0,000 mm 0,0 UV-I 0 W/m -2,1 C 3,0 C 0,0 km/h (0 Bft) 0,00 %
04.03.2015 18:15 2,6 C 71 % 1026,7 hPa 0,0 l/m 0,0 km/h (0 Bft) S-SW 201 0 min 0,000 mm 0,0 UV-I 0 W/m -2,1 C 2,6 C 0,0 km/h (0 Bft) 0,00 %
04.03.2015 18:30 2,3 C 68 % 1026,7 hPa 0,0 l/m 0,0 km/h (0 Bft) S-SW 204 0 min 0,000 mm 0,0 UV-I 0 W/m -3,0 C 2,3 C 0,0 km/h (0 Bft) 0,00 %
04.03.2015 18:45 2,1 C 68 % 1027,1 hPa 0,0 l/m 0,0 km/h (0 Bft) S 188 0 min 0,000 mm 0,0 UV-I 0 W/m -3,2 C 2,1 C 0,0 km/h (0 Bft) 0,00 %
04.03.2015 19:00 1,9 C 70 % 1027,3 hPa 0,0 l/m 0,0 km/h (0 Bft) S-SW 204 0 min 0,000 mm 0,0 UV-I 0 W/m -3,0 C 1,9 C 0,0 km/h (0 Bft) 0,00 %
04.03.2015 19:15 1,8 C 70 % 1027,1 hPa 0,0 l/m 0,0 km/h (0 Bft) S 187 0 min 0,000 mm 0,0 UV-I 0 W/m -3,1 C 1,8 C 0,0 km/h (0 Bft) 0,00 %
04.03.2015 19:30 1,7 C 70 % 1027,1 hPa 0,0 l/m 0,0 km/h (0 Bft) S-SW 192 0 min 0,000 mm 0,0 UV-I 0 W/m -3,2 C 1,7 C 0,0 km/h (0 Bft) 0,00 %
04.03.2015 19:45 1,5 C 72 % 1027,4 hPa 0,0 l/m 0,0 km/h (0 Bft) SW 219 0 min 0,000 mm 0,0 UV-I 0 W/m -3,0 C 1,5 C 0,0 km/h (0 Bft) 0,00 %
04.03.2015 20:00 1,4 C 73 % 1027,2 hPa 0,0 l/m 0,0 km/h (0 Bft) S-SW 204 0 min 0,000 mm 0,0 UV-I 0 W/m -2,9 C 1,4 C 0,0 km/h (0 Bft) 0,00 %
04.03.2015 20:15 1,2 C 73 % 1027,2 hPa 0,0 l/m 0,0 km/h (0 Bft) S-SW 198 0 min 0,000 mm 0,0 UV-I 0 W/m -3,1 C 1,2 C 0,0 km/h (0 Bft) 0,00 %
04.03.2015 20:30 1,1 C 73 % 1027,1 hPa 0,0 l/m 0,0 km/h (0 Bft) S 185 0 min 0,000 mm 0,0 UV-I 0 W/m -3,2 C 1,1 C 0,0 km/h (0 Bft) 0,00 %
04.03.2015 20:45 1,0 C 73 % 1027,3 hPa 0,0 l/m 0,0 km/h (0 Bft) SW 226 0 min 0,000 mm 0,0 UV-I 0 W/m -3,3 C 1,0 C 0,0 km/h (0 Bft) 0,00 %
04.03.2015 21:00 1,0 C 71 % 1027,0 hPa 0,0 l/m 0,0 km/h (0 Bft) SW 215 0 min 0,000 mm 0,0 UV-I 0 W/m -3,7 C 1,0 C 0,0 km/h (0 Bft) 0,00 %
04.03.2015 21:15 1,0 C 72 % 1027,4 hPa 0,0 l/m 0,0 km/h (0 Bft) S 189 0 min 0,000 mm 0,0 UV-I 0 W/m -3,5 C 1,0 C 0,0 km/h (0 Bft) 0,00 %
04.03.2015 21:30 0,9 C 71 % 1027,5 hPa 0,0 l/m 0,0 km/h (0 Bft) S 183 0 min 0,000 mm 0,0 UV-I 0 W/m -3,7 C 0,9 C 0,0 km/h (0 Bft) 0,00 %
04.03.2015 21:45 1,0 C 71 % 1027,7 hPa 0,0 l/m 0,0 km/h (0 Bft) S 187 0 min 0,000 mm 0,0 UV-I 0 W/m -3,7 C 1,0 C 0,0 km/h (0 Bft) 0,00 %
04.03.2015 22:00 1,0 C 71 % 1027,9 hPa 0,0 l/m 0,0 km/h (0 Bft) W-SW 240 0 min 0,000 mm 0,0 UV-I 0 W/m -3,7 C 1,0 C 0,0 km/h (0 Bft) 0,00 %
04.03.2015 22:15 0,9 C 72 % 1028,1 hPa 0,0 l/m 0,0 km/h (0 Bft) SW 225 0 min 0,000 mm 0,0 UV-I 0 W/m -3,6 C 0,9 C 0,0 km/h (0 Bft) 0,00 %
04.03.2015 22:30 1,0 C 72 % 1028,0 hPa 0,0 l/m 0,0 km/h (0 Bft) W-SW 250 0 min 0,000 mm 0,0 UV-I 0 W/m -3,5 C 1,0 C 0,0 km/h (0 Bft) 0,00 %
04.03.2015 22:45 1,1 C 72 % 1028,2 hPa 0,0 l/m 0,0 km/h (0 Bft) O-SO 113 0 min 0,000 mm 0,0 UV-I 0 W/m -3,4 C 1,1 C 0,0 km/h (0 Bft) 0,00 %
04.03.2015 23:00 1,2 C 71 % 1028,3 hPa 0,0 l/m 0,0 km/h (0 Bft) W-SW 250 0 min 0,000 mm 0,0 UV-I 0 W/m -3,5 C 1,2 C 0,0 km/h (0 Bft) 0,00 %
04.03.2015 23:15 1,2 C 71 % 1028,7 hPa 0,0 l/m 0,0 km/h (0 Bft) S-SW 195 0 min 0,000 mm 0,0 UV-I 0 W/m -3,5 C 1,2 C 0,0 km/h (0 Bft) 0,00 %
04.03.2015 23:30 1,2 C 71 % 1028,7 hPa 0,0 l/m 0,0 km/h (0 Bft) S-SO 162 0 min 0,000 mm 0,0 UV-I 0 W/m -3,5 C 1,2 C 0,0 km/h (0 Bft) 0,00 %
04.03.2015 23:45 1,1 C 71 % 1028,8 hPa 0,0 l/m 0,0 km/h (0 Bft) S 173 0 min 0,000 mm 0,0 UV-I 0 W/m -3,6 C 1,1 C 0,0 km/h (0 Bft) 0,00 %
_ Min-Zeit 00:15 13:00 03:15 - 00:00 - - - - - - 02:45 00:15 00:00 00:00
Minimum _ -1,0 C 51 % 1019,9 hPa - 0,0 km/h (0 Bft) - - - - - - -6,5 C -1,0 C 0,0 km/h (0 Bft) 0,00 %
_ Max-Zeit 13:00 09:15 23:45 06:00 15:00 - - 11:45 00:00 11:00 11:45 11:45 13:00 12:00 00:00
Maximum _ 6,9 C 81 % 1028,8 hPa 0,3 l/m 10,8 km/h
W-SW (2 Bft)
- - 15 min 0,000 mm 4,0 UV-I 454 W/m -0,1 C 6,9 C 19,8 km/h
W-NW (3 Bft)
0,00 %
Durchschnitt _ 2,3 C 70 % 1024,2 hPa #1,5 l/m 1,6 km/h (1 Bft) W-SW - #45 min. #0,000 mm 1,6 UV-I 135 W/m -2,7 C 2,2 C 3,3 km/h (1 Bft) 0,00 %